Theta_e
319 319 323 328 331 328 327 332 327 321 320 310 310 319 322 308 315 324 301 297 296 295 295 301 308 313 317 320 323 328 331 332 335 336 338 338 337 336 333 332 333 333 333 335 336 337 338 336 332
318 320 327 331 329 327 328 332 329 317 310 308 307 310 311 308 303 302 302 295 295 295 295 299 305 310 313 316 318 322 326 330 332 334 335 336 337 337 336 336 334 333 332 334 336 337 336 338 334
315 323 330 330 331 328 331 329 318 310 308 309 307 304 305 303 300 298 295 294 294 295 294 297 303 307 309 311 314 317 320 322 329 331 333 334 334 335 336 335 334 333 334 333 335 333 335 337 337
316 328 328 331 334 334 333 317 312 310 308 307 307 305 299 296 298 294 294 294 294 294 294 294 299 303 306 308 310 312 314 316 320 326 328 331 332 333 333 333 333 333 334 331 331 334 332 334 337
322 327 329 331 332 322 314 312 313 311 308 307 305 304 301 296 294 294 294 294 294 294 293 294 296 298 302 304 306 307 309 310 314 320 321 327 330 331 332 332 332 331 331 330 329 329 332 332 331
328 328 329 330 329 315 310 310 310 309 307 305 306 305 301 295 295 294 293 293 293 293 293 293 294 295 296 298 300 302 303 304 307 312 317 322 323 325 328 330 330 330 330 330 330 328 328 327 332
328 329 330 328 330 318 310 307 309 307 306 304 302 305 299 297 294 293 293 293 293 293 293 293 293 294 294 295 296 297 298 299 302 306 311 316 317 319 322 323 325 327 328 329 329 330 330 328 327
326 329 329 328 329 325 307 301 303 305 303 299 299 305 301 296 293 293 293 293 293 293 292 292 293 293 294 294 296 296 296 297 298 300 304 308 310 311 313 316 319 322 325 326 327 328 329 330 330
315 330 329 329 328 321 305 308 299 298 300 297 297 297 295 293 292 294 294 294 293 293 292 292 292 293 293 293 294 295 296 296 297 298 298 300 301 303 304 306 308 315 318 321 323 325 327 327 328
323 332 330 312 313 309 303 304 305 304 299 297 296 293 292 292 293 293 293 293 293 292 291 291 291 292 292 293 293 293 294 294 294 295 296 296 296 297 298 299 303 308 309 310 313 320 322 323 323
309 321 309 307 306 304 303 302 300 303 303 301 299 295 293 292 292 292 292 292 291 291 291 290 291 291 292 292 292 293 293 293 293 293 293 294 295 296 296 296 297 298 299 301 303 304 305 309 313
309 301 302 300 302 305 304 300 300 301 299 297 297 294 293 292 292 292 291 291 291 290 290 290 290 290 291 291 291 291 291 292 291 291 292 293 294 294 295 295 296 296 296 297 298 299 300 301 302
304 300 300 299 299 300 301 302 301 296 295 294 293 293 292 291 291 290 290 290 290 289 289 289 289 289 290 290 290 290 290 290 290 290 290 291 292 293 293 294 294 295 295 295 296 297 298 299 300
299 299 298 299 299 299 300 299 299 297 295 294 293 293 292 291 291 290 290 289 289 288 288 289 288 288 289 289 289 289 289 289 289 289 289 289 290 291 292 292 293 293 293 293 294 295 297 298 298
298 300 299 297 297 299 299 301 300 298 295 294 294 293 292 291 290 290 289 288 288 287 287 288 287 287 287 287 287 287 287 287 287 286 286 286 287 289 289 289 290 290 291 292 293 293 295 296 296
302 303 307 296 296 296 298 308 298 296 295 295 294 293 292 291 290 289 288 288 287 287 286 286 286 286 286 285 285 285 285 285 285 285 285 284 285 285 286 287 287 287 289 290 291 292 293 294 294
303 305 305 302 293 295 298 305 297 296 296 296 295 294 293 292 290 289 288 287 287 286 286 285 285 286 285 285 285 284 284 284 284 284 284 283 283 284 285 285 285 286 287 288 289 290 291 291 292
303 303 301 303 296 294 297 299 297 296 296 297 296 294 293 292 291 289 288 287 286 286 285 285 285 285 285 285 285 285 284 284 283 283 283 283 283 283 284 284 284 284 285 286 287 288 289 289 290
300 301 300 297 293 294 297 297 297 296 296 297 296 294 294 293 291 289 288 287 286 285 285 285 285 284 285 286 286 285 284 284 283 283 282 282 282 282 283 283 283 283 283 284 285 287 288 288 289
297 298 298 294 292 293 295 295 297 296 296 297 297 295 294 293 291 289 288 287 286 286 285 285 284 284 284 285 284 285 284 283 283 282 282 282 282 282 282 282 282 282 283 283 283 285 287 287 288
294 296 295 295 293 292 293 298 296 294 295 295 296 296 295 294 292 290 288 288 287 286 285 285 284 284 284 284 284 284 284 284 284 283 282 282 282 282 282 282 282 282 282 282 282 283 285 286 286
294 290 291 293 295 297 293 298 299 295 294 294 295 296 295 294 292 291 289 288 287 287 286 285 284 284 283 283 284 285 285 285 283 282 282 282 281 281 282 281 282 282 282 282 281 281 283 284 285
292 290 292 292 294 293 294 296 301 293 298 297 295 295 295 294 293 292 290 289 288 287 286 285 285 284 283 283 284 284 284 283 282 282 282 282 282 281 281 281 281 281 281 281 281 281 281 282 284
291 293 293 292 294 300 293 295 300 299 300 297 294 295 295 294 293 291 290 289 288 287 286 286 285 284 283 283 283 284 284 284 284 283 283 282 282 281 281 281 281 281 281 280 280 280 281 281 282
292 294 300 302 303 302 291 293 300 300 298 295 295 294 295 294 293 292 290 289 288 287 287 286 285 285 284 283 283 283 283 283 283 283 283 283 282 282 281 281 280 280 280 280 280 280 280 280 281
292 295 301 300 299 297 291 297 302 296 293 293 292 292 293 293 293 292 290 289 288 287 287 286 286 286 284 284 284 284 283 283 283 283 282 282 281 281 281 280 280 280 280 279 279 280 279 279 280
292 295 292 295 287 295 297 299 300 295 295 294 293 292 292 292 292 292 290 289 289 288 287 287 287 286 286 285 284 284 284 284 283 283 283 282 282 281 281 281 280 280 279 279 279 279 279 279 279
290 290 295 294 298 299 297 296 298 298 297 296 295 294 292 291 291 292 291 289 288 288 288 287 287 287 286 286 285 285 285 284 284 283 283 283 282 282 281 280 280 279 279 279 278 278 278 278 279
289 291 290 292 295 299 297 299 301 296 295 295 294 294 292 292 291 291 290 290 288 288 287 287 287 286 286 286 285 285 285 285 284 284 284 283 282 282 282 281 280 279 279 278 278 277 277 277 278
287 291 293 297 295 291 293 297 295 294 294 293 293 293 292 291 291 290 290 289 288 287 287 287 286 286 286 286 285 285 285 285 284 284 284 283 282 282 282 281 280 279 279 279 278 277 277 277 277
Wind_Speed
12 9 3 4 4 3 3 4 1 4 5 3 1 1 6 9 4 2 8 12 13 12 15 17 20 20 20 19 17 11 9 9 10 9 8 7 5 6 6 5 5 5 6 6 5 4 5 7 5
10 5 2 2 4 5 4 3 4 3 7 10 7 4 5 6 5 5 4 15 13 12 13 15 18 17 18 18 17 14 11 7 7 7 7 5 6 3 3 5 6 8 7 6 7 6 6 9 8
5 2 3 2 1 5 2 2 8 11 4 2 4 7 4 4 6 3 8 11 11 12 12 13 16 16 17 17 17 14 13 12 6 5 5 5 4 3 4 3 4 5 7 8 7 6 5 6 10
2 2 2 5 6 2 3 4 11 10 5 5 6 8 6 5 2 5 7 9 9 10 11 12 14 14 16 16 16 15 13 12 12 6 4 4 4 2 3 4 4 5 6 6 6 6 7 5 8
1 1 2 4 3 2 3 9 7 4 4 5 2 5 4 4 3 5 6 9 10 11 11 11 12 11 14 14 15 15 13 14 10 8 7 3 3 4 4 5 5 7 8 7 7 6 5 5 7
3 2 4 8 5 5 4 4 3 3 4 5 5 5 4 3 3 5 6 9 10 11 12 12 13 10 12 13 13 13 13 12 11 10 7 5 6 3 5 7 7 8 8 9 9 9 8 7 6
3 4 9 8 9 7 6 5 2 2 3 4 2 4 4 3 3 4 6 7 10 11 12 13 12 12 13 13 11 12 12 11 9 8 6 5 5 6 5 5 8 10 11 11 10 10 10 10 9
2 4 7 7 10 8 7 3 5 3 3 3 4 3 5 2 3 3 5 7 10 12 13 14 14 13 11 11 11 12 11 12 11 9 6 5 5 6 6 5 5 6 8 10 11 12 11 10 10
1 5 9 7 9 6 6 4 3 4 5 4 4 3 5 5 3 3 1 9 9 11 14 14 15 14 13 12 13 13 13 14 12 11 11 10 10 10 9 8 8 7 7 7 8 9 10 11 10
1 4 5 4 3 6 7 2 7 3 2 3 5 5 5 7 6 2 6 9 10 12 13 13 14 14 13 12 13 14 15 16 17 17 14 13 12 13 11 11 9 7 7 7 7 8 7 8 9
4 1 1 4 3 1 6 9 5 4 5 7 9 13 8 8 5 6 8 9 9 9 11 13 12 14 13 13 13 14 15 16 16 19 17 15 13 14 14 13 14 14 14 14 13 12 12 12 11
3 6 4 3 3 2 5 10 6 4 3 1 10 13 9 7 6 5 7 7 6 8 10 12 12 13 14 13 14 14 16 15 17 19 20 17 16 16 16 15 15 15 16 16 15 14 14 13 12
4 4 6 5 6 6 5 3 4 3 6 11 12 8 7 6 5 6 6 7 6 7 8 10 11 12 12 13 12 14 15 16 16 18 21 18 17 17 16 16 16 16 16 17 16 16 15 14 14
4 8 6 5 5 4 2 2 1 6 10 10 10 8 7 7 5 6 6 7 6 6 7 9 12 12 12 13 14 13 14 14 16 18 20 20 17 17 16 16 16 16 17 17 16 17 15 15 15
5 5 5 5 2 3 0 4 7 10 12 11 10 8 7 7 6 5 5 6 5 6 7 8 10 12 12 13 14 14 14 15 16 17 20 20 19 17 16 17 17 17 16 17 16 17 15 16 17
2 2 3 2 2 1 3 6 4 12 13 12 10 8 7 7 6 6 6 6 5 6 7 8 8 10 13 14 13 13 13 15 16 16 17 20 20 18 17 17 18 17 17 17 18 19 18 19 19
1 2 3 2 3 2 4 5 3 11 11 12 11 10 8 7 7 8 7 6 5 6 7 8 8 8 10 12 12 13 14 15 15 15 16 18 20 19 17 18 18 18 17 18 18 18 18 21 22
4 3 2 4 3 1 6 15 5 11 13 15 14 12 12 11 12 12 9 7 6 5 6 7 7 7 8 8 9 11 13 14 14 15 16 17 18 20 17 17 19 18 19 20 21 19 19 20 24
5 2 2 1 2 4 7 14 15 11 15 17 16 15 16 14 14 13 11 9 8 6 6 6 6 7 5 4 5 8 10 10 12 13 16 17 18 18 19 17 18 17 19 19 20 18 20 22 26
1 1 4 1 0 3 8 17 19 16 21 21 20 20 18 15 12 15 14 12 10 8 7 6 6 7 7 6 7 6 7 8 10 10 14 16 17 18 17 17 17 17 16 19 20 20 19 17 22
2 3 2 4 4 2 10 10 5 5 18 15 22 18 19 18 17 17 18 16 13 12 10 8 7 7 7 8 7 6 6 6 7 9 10 14 15 16 17 17 16 16 17 18 18 18 19 17 17
3 1 1 2 4 4 4 8 8 3 10 16 17 20 20 19 17 19 20 19 17 15 12 10 8 7 7 7 6 6 7 6 5 6 7 8 13 14 15 16 16 16 16 17 17 17 16 16 17
4 3 3 1 1 4 1 5 2 2 9 10 15 19 21 20 20 19 23 22 19 16 14 12 10 8 7 6 6 5 6 6 5 4 5 6 9 12 14 15 15 15 14 15 15 15 15 14 12
7 3 2 2 0 3 1 3 5 3 3 2 3 11 18 20 20 23 23 20 18 16 14 13 11 10 8 6 5 4 5 4 4 4 4 5 6 7 11 12 12 12 13 14 13 13 12 13 11
2 3 1 2 2 3 0 4 11 11 10 7 10 6 12 18 19 18 21 21 20 20 18 15 14 12 11 8 6 4 3 2 2 2 3 4 5 6 8 10 11 11 12 12 12 11 10 11 10
3 2 2 4 3 3 2 7 4 2 5 6 5 6 6 15 17 18 24 24 24 22 21 18 16 14 12 11 8 6 4 3 1 1 2 3 4 5 8 9 10 11 12 12 12 9 9 10 9
4 3 2 5 2 2 4 6 10 8 6 8 6 4 4 10 16 18 23 23 23 22 22 20 17 14 13 11 10 9 8 6 4 4 4 4 5 6 7 9 9 10 10 12 12 10 10 10 10
1 5 2 0 3 5 5 6 8 6 5 9 9 5 3 6 13 16 22 23 22 21 20 18 16 15 13 13 12 11 10 9 8 8 8 7 7 7 7 8 9 9 10 11 11 10 9 11 10
4 4 1 2 2 3 4 4 4 5 3 4 7 6 4 7 12 15 22 23 22 19 18 17 17 16 16 16 14 14 12 11 11 11 12 11 10 9 9 9 10 9 10 10 10 10 9 10 10
2 4 8 4 5 2 3 9 4 6 6 4 4 6 4 5 7 13 20 21 21 21 19 19 17 17 19 17 17 15 13 13 12 13 13 14 14 12 11 11 11 11 11 12 12 11 9 10 11
Wind_Direction
338 337 336 243 226 241 191 134 359 126 131 26 81 284 103 35 21 62 150 8 358 356 354 8 6 9 12 17 20 22 25 20 32 40 49 44 30 14 359 351 348 349 348 345 347 354 273 252 241
340 344 249 279 248 223 168 130 167 61 107 108 77 78 50 84 51 89 152 347 357 359 1 6 7 12 14 19 21 22 26 10 7 21 31 24 42 33 8 5 356 352 348 351 348 344 329 246 240
329 360 266 249 199 246 219 130 129 115 107 114 108 40 55 79 64 51 353 348 358 3 3 3 10 15 16 20 23 22 23 27 18 359 9 7 359 357 16 357 351 348 351 352 340 334 351 271 243
302 202 180 249 236 83 330 133 131 131 95 62 101 78 95 50 60 9 359 4 12 11 10 7 18 19 20 23 24 26 26 20 28 20 9 333 332 332 338 330 335 338 343 331 335 341 326 324 277
15 266 190 231 175 88 68 137 135 117 103 85 2 120 89 64 61 32 25 24 25 16 17 14 19 29 25 26 27 27 26 27 23 23 27 341 290 304 310 318 320 324 322 319 318 308 318 310 299
176 270 214 215 167 131 114 147 173 80 87 96 95 109 96 95 87 42 40 37 33 26 24 23 18 30 30 27 31 31 29 26 25 26 21 8 20 328 289 296 309 316 321 312 309 305 299 286 284
227 216 235 238 189 166 141 118 144 81 108 69 73 114 104 92 73 55 46 46 40 34 30 28 25 26 22 26 32 34 36 34 33 11 359 1 356 358 358 347 312 300 302 309 309 301 295 287 281
266 232 224 228 204 187 130 78 84 44 101 81 343 154 158 95 66 98 52 56 42 35 31 30 28 29 29 27 35 38 39 41 40 33 12 7 354 2 352 358 331 338 324 310 302 298 299 298 289
257 227 234 224 215 154 141 149 34 54 112 59 22 27 96 106 72 93 78 55 38 33 31 28 30 32 34 29 31 32 36 34 31 30 32 23 20 14 11 13 17 334 313 312 316 301 289 291 295
249 230 237 21 76 140 127 88 132 136 130 93 104 100 95 98 79 87 65 51 36 30 27 30 32 34 35 35 34 33 35 35 32 30 29 28 25 21 21 12 10 348 343 335 333 314 316 314 312
30 290 54 41 39 85 161 128 138 159 209 198 205 151 147 105 99 78 63 55 43 35 35 33 36 39 43 40 41 38 37 36 33 32 31 28 29 23 18 13 11 10 8 2 356 352 349 344 336
120 59 46 28 22 120 136 117 123 171 103 341 129 135 127 125 112 91 81 71 57 46 41 38 43 46 48 50 49 46 44 42 38 34 34 31 30 28 26 24 18 17 11 5 3 356 351 348 344
80 105 62 76 74 76 125 91 130 131 115 119 120 122 123 111 120 101 93 81 72 64 54 48 51 52 52 54 55 50 47 44 42 37 36 36 33 31 31 29 26 21 15 12 7 360 354 351 347
98 103 100 54 60 68 84 104 272 168 154 147 152 153 148 152 138 124 107 96 82 76 69 63 59 60 62 62 61 57 52 48 48 43 38 37 38 35 33 31 26 21 17 14 10 5 1 358 349
134 108 120 55 29 83 3 198 223 155 169 168 173 165 162 158 146 126 114 104 89 74 74 75 67 65 68 67 64 61 56 54 51 47 41 41 40 36 36 31 27 19 14 13 10 9 5 359 355
114 159 201 77 341 86 236 249 153 165 176 187 187 186 184 169 155 143 139 129 115 102 86 87 86 77 71 69 69 64 59 58 53 48 44 42 42 40 38 35 30 22 21 19 16 12 7 360 354
94 243 230 175 40 318 233 278 122 179 198 203 202 201 198 188 187 176 167 153 135 113 95 87 89 89 83 77 74 69 63 59 54 49 44 39 40 40 39 35 29 26 26 24 20 16 12 1 354
168 193 211 263 32 268 248 262 219 197 209 218 212 206 207 207 201 186 178 169 155 136 112 99 93 102 102 87 77 70 64 59 56 51 46 43 40 39 39 35 31 28 27 24 20 17 16 10 355
107 138 254 189 40 291 262 271 266 218 219 225 220 213 212 210 196 188 185 182 174 162 146 126 110 99 112 112 93 71 66 61 57 51 47 44 42 39 38 35 31 29 29 24 21 16 14 13 7
110 228 254 192 9 268 296 280 269 229 227 223 219 216 212 205 192 192 193 192 191 182 170 150 128 111 101 101 101 100 87 74 65 55 49 46 42 41 38 36 32 29 26 24 22 21 15 19 19
36 290 287 305 314 230 300 268 258 235 236 231 228 223 214 205 197 194 195 198 196 194 186 173 155 131 115 110 108 108 94 77 67 51 46 43 43 41 39 36 33 29 28 24 21 20 20 12 19
172 70 351 318 297 307 343 297 281 243 246 230 234 222 215 206 202 197 195 198 198 196 189 180 171 157 140 124 115 113 101 92 75 63 52 47 45 41 38 35 33 30 26 23 19 17 19 19 15
95 138 120 117 274 306 127 266 257 254 277 257 233 224 217 205 199 196 196 199 197 193 191 188 182 176 168 148 135 117 108 105 103 86 70 56 44 40 35 32 29 28 25 21 17 16 18 19 15
137 122 105 102 316 248 46 276 294 224 230 298 332 231 218 208 200 197 197 193 194 194 194 193 192 192 188 175 155 137 120 113 102 76 61 47 41 34 27 26 25 23 19 16 12 11 12 11 10
207 190 253 252 209 278 69 247 268 276 293 294 300 283 223 208 199 194 188 190 193 195 196 197 198 200 199 196 190 176 157 128 102 72 50 39 30 22 14 17 15 14 11 9 7 5 5 2 1
167 258 211 243 255 327 126 245 256 67 325 299 289 287 249 211 201 196 193 192 195 196 197 198 200 201 202 204 206 208 209 214 233 321 360 7 9 3 1 3 2 2 2 2 0 357 356 355 350
151 224 20 106 88 270 245 265 272 99 43 20 336 287 253 215 209 199 195 195 196 196 198 198 200 202 205 209 213 221 227 234 246 270 289 306 322 333 339 346 347 348 350 352 353 349 348 348 345
255 137 137 246 219 241 239 272 255 336 12 360 10 334 271 218 210 206 199 196 197 198 198 199 203 206 210 217 223 229 236 244 252 258 264 271 284 303 316 324 329 333 337 341 344 340 337 340 339
156 189 128 325 256 250 284 252 187 224 275 327 344 329 278 222 212 209 204 200 196 194 194 200 206 209 215 221 228 234 240 246 254 259 259 259 265 277 293 303 311 317 322 328 331 329 327 331 330
320 207 190 220 199 253 340 270 176 249 271 259 319 342 314 264 239 222 208 198 193 194 195 200 205 210 217 221 227 235 241 244 251 257 258 254 254 262 274 286 295 302 309 316 320 321 320 321 321